Regional Weather Roundup
Issued by NWS

Home | Current Version | Previous Version | Graphics & Text | Print | Product List | Glossary On
Versions: 1 2 3 4 5 6 7 8 9 10 11 12 13 14 15 16 17 18 19 20 21 22 23 24 25 26 27 28 29 30 31 32 33 34 35 36 37 38 39 40 41 42 43 44 45 46 47 48 49 50
000
ASUS45 KABQ 310501
RWRNM
NEW MEXICO REGIONAL WEATHER ROUNDUP
NATIONAL WEATHER SERVICE ALBUQUERQUE NM
1100 PM MDT SUN AUG 30 2015

NOTE: "FAIR" MEANS FEW OR NO CLOUDS BELOW 12,000 FEET AGL WITH NO
       SIGNIFICANT WEATHER OR OBSTRUCTIONS TO VISION.

      THIS PRODUCT IS RELEASED AS TWO VERSIONS.  ONE VERSION NEAR
      THE TOP OF THE HOUR CONTAINING PRELIMINARY DATA FROM ALBUQUERQUE
      AND OTHER STATIONS.  A FINAL VERSION WITH ADDITIONAL DATA IS
      ISSUED ABOUT 10 MINUTES AFTER THE HOUR.

NMZ501-503-504-510>518-310600-
NORTHWEST PLATEAU/NORTHCENTRAL MOUNTAINS

CITY           SKY/WX    TMP DP  RH WIND       PRES   REMARKS
FARMINGTON     CLEAR     67  50  54 N7        30.13F
SANTA FE       PTCLDY    69  43  38 SE7       30.17S
TAOS           PTCLDY    63  36  36 E8        30.24F
ANGEL FIRE     FAIR      50  45  84 NW3       30.35S

$$
NMZ402-403-502-505>509-310600-
WESTCENTRAL MOUNTAINS/SOUTHWEST MOUNTAINS

CITY           SKY/WX    TMP DP  RH WIND       PRES   REMARKS
GALLUP         MOCLDY    58  54  86 NE6       30.23F
GRANTS         MOCLDY    61  53  77 W5        30.24F
SILVER CITY      N/A     72  54  53 N9        30.17F

$$
NMZ407-409-411-412-310600-
SOUTHERN DESERTS

CITY           SKY/WX    TMP DP  RH WIND       PRES   REMARKS
DEMING         CLEAR     74  54  49 CALM      30.07F
HOLLOMAN AFB   CLEAR     78  45  31 N12       30.04S
ALAMOGORDO     CLEAR     73  43  33 S10       30.07S
T OR C         CLEAR     76  49  38 S6        30.10R

$$
NMZ519>523-310600-
CENTRAL VALLEYS/CENTRAL HIGHLANDS

CITY           SKY/WX    TMP DP  RH WIND       PRES   REMARKS
ALBUQUERQUE    PTCLDY    78  45  30 E7        30.12S
DOUBLE EAGLE   MOCLDY    73  47  38 NW12      30.16S
MORIARTY ARPT  FAIR      65  47  51 S7        30.20S
CLINES CORNERS CLEAR     63  47  55 S12       30.23F
BELEN          FAIR      74  44  33 W8        30.11S
SOCORRO        NOT AVBL

$$
NMZ524>526-539-540-310600-
SOUTHCENTRAL MOUNTAINS

CITY           SKY/WX    TMP DP  RH WIND       PRES   REMARKS
RUIDOSO        NOT AVBL

$$
NMZ527>531-310600-
NORTHEAST HIGHLANDS/NORTHEAST PLAINS

CITY           SKY/WX    TMP DP  RH WIND       PRES   REMARKS
LAS VEGAS      CLEAR     61  47  59 S13       30.23S
RATON          CLOUDY    67  52  58 SW5       30.17S
CLAYTON        CLEAR     66  51  58 SW10      30.08F

$$
NMZ532>537-310600-
EASTCENTRAL PLAINS

CITY           SKY/WX    TMP DP  RH WIND       PRES   REMARKS
TUCUMCARI      CLEAR     67  51  56 SW6       30.04R
CANNON AFB     CLEAR     68  49  50 S8        30.09S
CLOVIS AIRPORT CLEAR     64  48  55 SW7       30.11R

$$
NMZ028-029-538-310600-
SOUTHEAST PLAINS

CITY           SKY/WX    TMP DP  RH WIND       PRES   REMARKS
ROSWELL        CLEAR     72  53  51 S9        30.05R
ARTESIA        CLEAR     70  54  56 S8        30.06R
CARLSBAD         N/A     72  47  40 S6        30.03S
HOBBS            N/A     70  55  60 CALM      30.09S


$$



USA.gov is the U.S. government's official web portal to all federal, state and local government web resources and services.